Hourly Weather Rusakivka

Today, 22 April, Thursday

Time Temperature Precipitation Wind Pressure Humidity
00:00 +6°C° 0 mm 2 mps 739 mmHg 83%
01:00 +6°C° 0 mm 2 mps 740 mmHg 83%
02:00 +6°C° 0 mm 2 mps 740 mmHg 83%
03:00 +7°C° 0 mm 1 mps 740 mmHg 82%
04:00 +7°C° 0 mm 1 mps 740 mmHg 82%
05:00 +7°C° 0 mm 1 mps 740 mmHg 81%
06:00 +8°C° 0 mm 1 mps 740 mmHg 75%
07:00 +9°C° 0 mm 2 mps 741 mmHg 68%
08:00 +12°C° 0 mm 2 mps 741 mmHg 61%
09:00 +13°C° 0 mm 2 mps 741 mmHg 58%
10:00 +13°C° 0 mm 3 mps 741 mmHg 55%
11:00 +14°C° 0 mm 3 mps 741 mmHg 52%
12:00 +14°C° 0.2 mm 3 mps 741 mmHg 53%
13:00 +14°C° 0.2 mm 3 mps 741 mmHg 54%
14:00 +14°C° 0.2 mm 4 mps 741 mmHg 55%
15:00 +14°C° 0.2 mm 4 mps 741 mmHg 57%
16:00 +13°C° 0.2 mm 4 mps 741 mmHg 60%
17:00 +13°C° 0.2 mm 4 mps 741 mmHg 63%
18:00 +11°C° 0 mm 3 mps 741 mmHg 69%
19:00 +10°C° 0 mm 2 mps 741 mmHg 75%
20:00 +8°C° 0 mm 2 mps 742 mmHg 81%
21:00 +8°C° 0 mm 2 mps 741 mmHg 80%
22:00 +8°C° 0 mm 2 mps 741 mmHg 79%
23:00 +7°C° 0 mm 2 mps 741 mmHg 79%

Tomorrow, 23 April, Friday

Time Temperature Precipitation Wind Pressure Humidity
00:00 +7°C° 0 mm 2 mps 741 mmHg 78%
01:00 +7°C° 0 mm 2 mps 741 mmHg 78%
02:00 +7°C° 0 mm 2 mps 741 mmHg 78%
03:00 +7°C° 0 mm 2 mps 741 mmHg 78%
04:00 +7°C° 0 mm 2 mps 741 mmHg 78%
05:00 +6°C° 0 mm 2 mps 741 mmHg 77%
06:00 +8°C° 0 mm 2 mps 741 mmHg 71%
07:00 +10°C° 0 mm 2 mps 741 mmHg 65%
08:00 +13°C° 0 mm 2 mps 741 mmHg 58%
09:00 +14°C° 0 mm 2 mps 741 mmHg 53%
10:00 +14°C° 0 mm 3 mps 740 mmHg 48%
11:00 +17°C° 0 mm 3 mps 740 mmHg 43%
12:00 +17°C° 0 mm 3 mps 740 mmHg 43%
13:00 +17°C° 0 mm 3 mps 739 mmHg 42%
14:00 +17°C° 0 mm 4 mps 739 mmHg 42%
15:00 +16°C° 0 mm 3 mps 739 mmHg 48%
16:00 +14°C° 0 mm 3 mps 739 mmHg 55%
17:00 +14°C° 0 mm 2 mps 739 mmHg 61%
18:00 +13°C° 0 mm 2 mps 739 mmHg 64%
19:00 +12°C° 0 mm 2 mps 739 mmHg 67%
20:00 +10°C° 0 mm 2 mps 739 mmHg 71%
21:00 +9°C° 0 mm 2 mps 739 mmHg 73%
22:00 +8°C° 0 mm 2 mps 739 mmHg 75%
23:00 +8°C° 0 mm 2 mps 739 mmHg 77%

Day after tomorrow, 24 April, Saturday

Time Temperature Precipitation Wind Pressure Humidity
00:00 +7°C° 0 mm 2 mps 739 mmHg 79%
01:00 +8°C° 0 mm 1 mps 739 mmHg 82%
02:00 +8°C° 0 mm 1 mps 738 mmHg 84%
03:00 +7°C° 0 mm 2 mps 738 mmHg 85%
04:00 +7°C° 0 mm 2 mps 738 mmHg 87%
05:00 +7°C° 0 mm 2 mps 738 mmHg 88%
06:00 +8°C° 0 mm 2 mps 739 mmHg 86%
07:00 +9°C° 0 mm 2 mps 739 mmHg 84%
08:00 +10°C° 0 mm 2 mps 739 mmHg 81%
09:00 +12°C° 0 mm 2 mps 740 mmHg 74%
10:00 +13°C° 0 mm 2 mps 740 mmHg 67%
11:00 +12°C° 0 mm 3 mps 740 mmHg 60%
12:00 +13°C° 0 mm 3 mps 740 mmHg 55%
13:00 +13°C° 0 mm 3 mps 740 mmHg 50%
14:00 +14°C° 0 mm 4 mps 740 mmHg 46%
15:00 +13°C° 0 mm 4 mps 740 mmHg 48%
16:00 +13°C° 0 mm 4 mps 740 mmHg 51%
17:00 +12°C° 0 mm 3 mps 740 mmHg 53%
18:00 +10°C° 0 mm 3 mps 741 mmHg 57%
19:00 +9°C° 0 mm 2 mps 741 mmHg 60%
20:00 +8°C° 0 mm 2 mps 741 mmHg 64%
21:00 +7°C° 0 mm 2 mps 741 mmHg 67%
22:00 +8°C° 0 mm 1 mps 741 mmHg 69%
23:00 +7°C° 0 mm 1 mps 741 mmHg 71%

25 April, Sunday

Time Temperature Precipitation Wind Pressure Humidity
00:00 +7°C° 0 mm 1 mps 741 mmHg 73%
01:00 +6°C° 0 mm 1 mps 741 mmHg 74%
02:00 +6°C° 0 mm 1 mps 741 mmHg 75%
03:00 +5°C° 0 mm 1 mps 741 mmHg 75%
04:00 +4°C° 0 mm 2 mps 741 mmHg 74%
05:00 +4°C° 0 mm 2 mps 740 mmHg 74%
06:00 +5°C° 0 mm 2 mps 740 mmHg 69%
07:00 +5°C° 0 mm 3 mps 740 mmHg 65%
08:00 +7°C° 0 mm 3 mps 740 mmHg 60%
09:00 +8°C° 0 mm 3 mps 740 mmHg 56%
10:00 +8°C° 0 mm 4 mps 740 mmHg 52%
11:00 +10°C° 0 mm 4 mps 740 mmHg 47%
12:00 +10°C° 0 mm 4 mps 740 mmHg 46%
13:00 +10°C° 0 mm 4 mps 740 mmHg 46%
14:00 +11°C° 0 mm 4 mps 739 mmHg 45%
15:00 +10°C° 0 mm 4 mps 739 mmHg 46%
16:00 +8°C° 0 mm 4 mps 739 mmHg 47%
17:00 +8°C° 0 mm 4 mps 739 mmHg 49%
18:00 +7°C° 0 mm 3 mps 739 mmHg 53%
19:00 +6°C° 0 mm 2 mps 739 mmHg 57%
20:00 +5°C° 0 mm 2 mps 739 mmHg 61%
21:00 +5°C° 0 mm 1 mps 739 mmHg 59%
22:00 +5°C° 0 mm 1 mps 739 mmHg 57%
23:00 +4°C° 0 mm 1 mps 739 mmHg 54%

26 April, Monday

Time Temperature Precipitation Wind Pressure Humidity
00:00 +4°C° 0 mm 1 mps 738 mmHg 54%
01:00 +4°C° 0 mm 1 mps 738 mmHg 54%
02:00 +3°C° 0 mm 0 mps 738 mmHg 54%
03:00 +4°C° 0 mm 1 mps 738 mmHg 54%
04:00 +4°C° 0 mm 1 mps 738 mmHg 54%
05:00 +4°C° 0 mm 1 mps 738 mmHg 54%
06:00 +6°C° 0 mm 1 mps 738 mmHg 51%
07:00 +8°C° 0 mm 1 mps 738 mmHg 47%
08:00 +9°C° 0 mm 0 mps 738 mmHg 43%
09:00 +11°C° 0 mm 1 mps 738 mmHg 41%
10:00 +13°C° 0 mm 1 mps 738 mmHg 39%
11:00 +14°C° 0 mm 2 mps 738 mmHg 37%
12:00 +13°C° 0 mm 3 mps 738 mmHg 39%
13:00 +14°C° 0 mm 4 mps 738 mmHg 41%
14:00 +14°C° 0 mm 5 mps 737 mmHg 44%
15:00 +13°C° 0 mm 5 mps 737 mmHg 49%
16:00 +12°C° 0 mm 5 mps 737 mmHg 54%
17:00 +11°C° 0 mm 4 mps 737 mmHg 59%
18:00 +10°C° 0 mm 4 mps 738 mmHg 69%
19:00 +8°C° 0 mm 3 mps 738 mmHg 78%
20:00 +7°C° 0 mm 2 mps 738 mmHg 87%
21:00 +6°C° 0 mm 2 mps 738 mmHg 88%
22:00 +6°C° 0 mm 2 mps 738 mmHg 88%
23:00 +5°C° 0 mm 2 mps 738 mmHg 89%

27 April, Tuesday

Time Temperature Precipitation Wind Pressure Humidity
00:00 +6°C° 0 mm 1 mps 738 mmHg 89%
01:00 +6°C° 0 mm 1 mps 738 mmHg 89%
02:00 +6°C° 0 mm 1 mps 738 mmHg 89%
03:00 +6°C° 0 mm 1 mps 738 mmHg 88%
04:00 +6°C° 0 mm 1 mps 738 mmHg 86%
05:00 +6°C° 0 mm 1 mps 738 mmHg 84%
06:00 +8°C° 0 mm 1 mps 738 mmHg 74%
07:00 +8°C° 0 mm 2 mps 738 mmHg 64%
08:00 +10°C° 0 mm 3 mps 739 mmHg 53%
09:00 +12°C° 0 mm 3 mps 739 mmHg 49%
10:00 +13°C° 0 mm 3 mps 738 mmHg 45%
11:00 +14°C° 0 mm 4 mps 738 mmHg 40%
12:00 +14°C° 0 mm 4 mps 738 mmHg 40%
13:00 +15°C° 0 mm 4 mps 738 mmHg 40%
14:00 +15°C° 0 mm 4 mps 738 mmHg 40%
15:00 +14°C° 0 mm 4 mps 737 mmHg 43%
16:00 +13°C° 0 mm 4 mps 737 mmHg 46%
17:00 +13°C° 0 mm 3 mps 737 mmHg 49%
18:00 +11°C° 0 mm 3 mps 737 mmHg 53%
19:00 +10°C° 0 mm 3 mps 737 mmHg 57%
20:00 +8°C° 0 mm 3 mps 737 mmHg 61%
21:00 +8°C° 0 mm 3 mps 737 mmHg 61%
22:00 +7°C° 0 mm 3 mps 737 mmHg 60%
23:00 +7°C° 0 mm 3 mps 736 mmHg 60%
Show more